User: anonymous   Login
Location: Freistadt
(48.5112°N, 14.5013°E)
Time: 21:44:43
(UTC+02:00)
Language:

M-CUBED/EXP-1 PRIME - Orbit

View from above orbital plane
View from above orbital plane
View from above satellite
View from above satellite

Ground track
Ground track

The orbit data is extracted from the following two-line orbital elements,

1 37855U 11061F   24114.38377105  .00219341  00000-0  22381-2 0  9991
2 37855 101.6876 265.0495 0054570 152.8719 207.5393 15.62471434684907
Epoch (UTC): 23 April 2024 09:12:37
Eccentricity: 0.0054570
inclination: 101.6876°
perigee height: 343 km
apogee height: 417 km
right ascension of ascending node: 265.0495°
argument of perigee: 152.8719°
revolutions per day: 15.62471434
mean anomaly at epoch: 207.5393°
orbit number at epoch: 68490

The dashed part of the orbit path shows where the satellite is in the earth's shadow,  

DLR